Theta_e
345 347 350 352 352 348 345 346 348 347 347 348 347 348 349 348 349 350 351 349 346 347 349 347 344 345 347 345 345 344 343 343 344 348 350 344 333 328 329 331 331 334 335 335 337 339 341 343 345 345 346 346 348 349 349 349 349 349 351 351 349 345 344 345 348 350 351 353 354 355 355 354 353 352 351 350 351 352 353 350 349 349 348 348 348
344 346 347 349 349 348 342 341 343 345 346 346 346 347 348 347 348 348 350 349 346 345 345 344 343 342 344 342 344 344 342 343 342 343 346 349 346 332 328 331 332 334 336 337 339 341 343 343 344 345 345 345 345 347 347 347 350 351 349 345 343 343 345 348 350 350 349 350 350 351 351 350 349 347 343 343 344 346 348 347 347 348 349 349 349
347 345 345 346 346 345 342 340 342 344 345 346 346 348 348 347 346 347 348 349 345 344 345 343 341 341 342 341 341 341 341 342 340 340 343 349 351 340 332 332 333 335 337 339 341 342 344 344 345 345 345 345 345 345 346 347 349 348 344 342 342 344 347 350 351 350 349 348 349 348 346 345 343 341 341 341 341 342 344 346 347 349 350 351 350
346 344 344 345 344 343 343 343 344 346 347 348 348 349 346 345 348 348 347 348 344 343 345 341 340 341 341 341 340 339 339 340 338 340 341 347 352 347 342 338 334 334 336 338 341 343 344 345 345 345 345 345 345 344 345 344 344 343 342 342 343 345 348 350 351 351 350 349 350 348 343 342 342 342 342 342 341 342 344 346 347 349 350 350 350
346 346 346 346 345 345 346 347 348 350 350 350 351 350 347 348 351 350 348 348 344 344 345 341 339 341 341 341 340 338 338 338 339 340 340 345 346 344 348 347 341 337 335 335 338 341 343 344 344 345 345 345 345 344 344 343 342 342 342 342 343 345 349 351 351 352 351 350 350 348 343 342 343 343 343 342 342 343 344 346 346 349 350 351 351
350 348 348 349 349 349 347 349 352 353 352 351 352 351 349 351 352 350 348 347 344 345 345 341 339 340 341 340 339 338 337 337 338 337 338 340 340 340 345 347 346 343 339 337 339 340 340 341 343 344 344 344 344 344 344 343 342 342 342 343 342 344 348 350 351 352 352 351 351 349 344 342 342 342 343 343 342 342 343 344 345 347 349 351 351
350 347 349 350 350 350 349 351 353 354 353 352 353 352 349 349 349 348 348 346 343 343 342 341 340 341 341 340 339 338 337 337 337 337 337 336 337 340 341 339 341 343 342 343 345 345 343 340 338 339 341 342 343 343 343 342 342 343 343 343 342 343 346 349 350 351 353 352 351 350 346 342 342 341 343 343 341 342 342 343 344 345 347 349 350
350 350 351 349 348 349 349 352 354 354 354 355 355 353 350 348 347 346 347 345 341 342 341 341 342 342 342 341 340 339 337 337 337 338 337 337 338 339 338 339 340 341 342 343 343 344 345 344 339 337 338 338 339 340 341 341 341 343 343 343 343 343 345 347 349 350 352 352 350 351 347 344 342 342 344 343 341 342 343 343 343 344 344 346 348
351 351 349 347 348 349 350 353 355 353 353 354 354 352 349 347 346 345 345 344 342 342 342 341 341 340 340 339 339 340 338 337 340 339 337 337 338 337 338 338 338 338 339 340 341 340 342 344 342 340 338 336 338 339 339 340 340 341 342 343 343 343 344 346 347 349 352 352 350 350 347 344 343 343 343 342 342 343 343 343 344 344 344 345 345
351 349 347 347 348 348 352 355 355 352 352 352 350 349 347 345 347 347 345 344 343 341 340 340 338 338 339 339 339 340 339 338 339 339 338 338 337 337 338 338 338 338 340 341 342 343 344 344 343 342 342 341 343 344 343 342 340 340 340 342 342 343 343 343 345 349 352 351 350 350 347 344 343 344 344 342 343 344 344 344 345 344 344 344 344
351 349 347 349 348 347 351 354 351 350 350 349 347 346 346 346 348 348 345 343 342 339 338 339 340 340 340 340 340 340 340 340 340 338 337 338 337 337 338 340 341 340 341 341 342 344 346 348 347 345 346 346 346 345 346 346 343 341 339 340 341 341 342 342 344 349 352 352 351 350 347 344 344 344 343 342 344 344 345 345 345 344 344 343 341
353 350 347 349 348 347 349 351 350 348 347 346 347 347 346 345 346 347 346 342 342 340 339 340 341 341 339 340 342 340 340 338 339 339 338 338 338 337 338 340 340 341 341 340 341 344 345 348 348 346 347 348 347 345 345 346 345 345 343 341 340 340 341 341 344 348 351 352 351 350 347 344 345 344 343 343 345 345 345 345 344 344 343 342 339
356 351 346 349 348 349 349 348 350 349 348 349 351 351 349 347 346 346 346 345 344 340 340 341 340 341 341 340 339 338 340 340 339 339 339 340 339 338 340 340 339 341 342 341 341 343 344 345 345 345 345 347 348 347 348 348 349 348 348 347 342 340 341 341 343 347 350 352 351 350 347 345 345 344 343 345 345 345 346 345 343 343 342 341 339
357 353 348 349 348 349 348 348 352 352 351 355 356 352 350 351 348 344 344 344 343 340 340 342 341 340 339 344 347 343 340 338 339 341 339 340 340 340 340 340 341 341 341 343 343 344 344 343 344 344 346 348 349 348 349 350 350 349 349 350 347 343 341 341 343 345 350 352 351 350 348 346 346 343 344 346 346 346 345 344 342 341 340 339 338
356 354 352 350 348 350 350 351 357 357 354 357 356 352 350 351 348 346 346 344 341 342 342 343 343 340 345 359 363 359 357 347 339 341 340 339 339 340 341 340 342 342 342 344 344 345 344 343 344 345 347 349 347 347 351 352 351 350 349 349 350 346 341 341 343 346 350 352 351 350 348 347 345 343 346 347 346 345 344 343 341 339 337 336 335
355 353 350 349 348 352 353 353 356 357 355 354 355 353 351 352 350 349 351 349 345 344 342 342 344 346 357 368 361 364 375 361 345 342 339 339 339 338 341 340 340 342 343 344 345 344 344 344 344 344 346 346 346 348 352 353 351 350 350 351 351 347 342 341 344 348 351 352 351 350 349 348 345 344 347 348 346 345 343 342 340 338 336 334 333
353 350 346 349 350 353 355 353 353 354 353 354 355 353 352 353 354 353 354 353 350 349 346 343 346 347 355 366 366 372 374 356 348 351 343 340 341 339 342 342 340 342 343 343 343 343 344 344 343 343 344 346 350 351 351 351 351 349 350 352 352 349 346 343 345 349 351 351 350 349 349 347 344 345 348 348 346 345 344 342 341 338 335 332 330
349 347 347 350 352 355 356 354 354 352 351 354 355 353 351 351 354 356 355 352 352 353 350 347 349 348 345 351 358 364 363 353 357 362 352 343 342 341 343 342 342 341 342 342 343 343 345 344 343 344 345 348 352 352 350 350 350 350 351 353 353 351 349 345 346 350 351 351 349 347 348 346 344 346 349 348 346 344 344 343 341 336 329 327 325
349 349 349 350 353 356 356 355 355 354 353 354 354 353 352 353 355 355 354 352 353 355 354 350 349 349 346 345 344 345 348 353 362 367 367 359 348 342 342 343 343 341 341 343 343 344 345 346 346 345 346 347 350 351 350 350 351 352 353 354 353 351 348 345 346 350 351 351 349 346 347 345 343 347 349 348 346 345 344 343 339 329 323 322 322
351 351 352 352 352 355 356 355 354 354 354 354 353 353 354 357 356 352 352 354 355 354 355 353 350 349 350 348 347 345 344 346 351 356 364 365 356 347 343 344 345 343 345 346 344 344 345 347 347 346 346 346 348 350 349 350 351 353 355 355 354 351 348 346 346 350 351 350 349 346 345 344 344 348 349 348 347 345 344 343 334 325 322 321 321
352 353 356 355 352 353 355 355 354 354 354 352 351 353 357 358 354 350 353 356 355 354 354 353 351 351 351 349 350 350 347 347 347 345 350 358 359 353 347 346 346 345 345 345 345 345 345 347 347 345 346 347 347 348 349 351 352 354 357 357 356 353 348 345 347 350 350 350 348 346 344 344 345 348 349 348 347 345 345 341 331 327 326 321 319
353 354 356 354 353 353 354 355 355 353 352 350 350 354 357 355 352 351 354 355 353 353 355 354 351 350 349 349 351 352 351 353 351 345 347 353 355 351 345 347 351 348 345 345 345 348 348 348 348 346 347 348 348 348 350 351 351 353 355 353 351 350 345 345 348 349 349 349 348 345 344 344 346 348 348 349 347 346 345 339 331 331 328 320 318
353 354 355 354 353 353 353 355 355 352 350 350 354 356 355 355 354 353 353 355 354 354 355 354 351 350 349 348 352 354 353 353 350 346 348 351 355 355 347 344 349 347 344 345 346 350 351 350 348 349 350 350 349 350 351 351 351 353 354 350 347 346 344 344 346 348 348 349 347 344 343 344 346 348 348 349 347 346 345 337 332 333 327 318 316
353 354 353 353 353 352 351 352 353 351 350 351 354 354 352 354 356 354 352 354 356 354 352 352 352 354 355 352 351 351 351 351 348 346 348 348 351 354 348 346 353 349 343 346 350 352 354 351 349 350 353 352 351 352 352 351 354 355 353 351 350 350 348 346 346 347 349 349 346 344 343 344 346 348 348 349 347 346 345 338 334 333 325 316 315
352 353 352 351 352 352 351 351 351 351 350 350 353 352 351 353 355 355 353 353 355 354 352 355 355 354 356 355 351 349 348 349 348 347 348 347 347 350 349 350 354 349 345 349 353 354 353 352 351 352 354 353 353 353 353 353 355 355 353 351 351 352 354 351 347 346 348 348 345 343 343 344 346 347 348 349 347 347 346 338 335 333 322 313 313
350 351 350 350 351 351 351 350 351 351 350 350 352 353 352 353 355 357 357 355 355 354 353 356 355 352 354 354 353 352 349 349 348 346 348 348 347 349 350 351 352 349 348 351 353 354 354 353 352 354 353 352 353 355 356 355 354 355 354 352 352 353 356 355 348 346 348 348 346 344 343 343 345 347 348 349 347 347 345 338 335 332 320 311 312
350 349 348 348 350 351 351 352 352 352 353 354 354 353 353 353 354 355 356 356 355 355 354 354 353 351 352 354 354 353 351 349 348 347 347 347 347 348 349 354 362 360 352 352 354 354 354 354 351 352 351 351 354 357 357 356 356 357 355 354 354 354 357 357 351 347 347 348 347 345 344 344 345 346 348 349 347 347 345 337 334 329 317 310 311
350 349 348 348 350 351 351 353 354 353 354 355 354 354 354 355 355 355 356 356 355 356 354 352 353 351 351 354 354 352 351 349 349 349 348 347 348 349 348 353 367 370 362 359 361 355 353 354 353 352 351 352 356 358 358 357 356 357 355 354 354 354 356 357 355 352 349 348 348 347 346 345 345 346 348 348 346 346 343 336 333 327 314 309 310
350 350 350 349 349 351 351 352 354 354 355 355 354 354 353 353 355 355 356 356 355 355 353 352 353 352 350 353 353 351 351 351 350 350 350 349 350 351 351 352 361 369 368 367 364 356 353 355 355 355 353 352 355 358 359 358 355 355 356 356 356 355 355 357 358 356 352 351 349 348 348 346 346 346 347 348 346 345 342 335 332 324 312 308 309
349 349 350 350 349 351 351 351 352 354 355 355 354 354 353 353 354 354 355 356 355 355 355 355 354 352 351 351 351 351 351 351 352 351 350 352 352 353 354 353 355 362 367 368 365 358 353 354 356 356 353 352 354 356 357 356 355 354 356 356 356 355 355 357 357 356 353 351 349 349 349 348 348 347 347 348 345 345 342 335 331 323 311 308 310
347 347 348 349 349 350 351 350 351 352 353 354 353 354 355 354 355 355 356 355 355 356 357 356 354 351 349 349 350 351 352 351 350 350 349 351 352 353 353 354 356 358 360 364 366 362 356 357 358 356 354 353 353 353 354 355 355 356 357 356 354 355 356 357 357 356 354 350 349 349 349 348 348 348 348 347 344 344 342 336 334 328 312 307 309
346 346 346 348 349 350 351 350 350 350 351 352 352 353 355 355 355 356 357 356 356 358 358 355 353 351 349 350 351 352 353 352 350 350 351 351 352 353 353 353 356 357 358 362 366 365 360 359 359 356 355 354 352 353 354 354 355 356 357 356 355 355 356 355 355 356 355 352 351 350 349 349 350 349 348 346 343 343 341 338 337 327 311 307 310
346 347 347 347 348 349 349 349 349 349 349 350 351 352 353 354 354 355 356 355 356 358 357 355 354 352 351 352 354 354 353 353 351 351 351 351 350 351 352 352 353 354 357 360 363 363 361 359 357 355 354 355 355 355 355 354 355 356 357 357 355 354 353 353 353 354 355 354 352 350 349 349 350 350 348 346 342 341 341 341 337 322 308 308 310
346 347 347 346 347 348 348 347 347 347 347 348 349 350 351 353 354 354 354 355 356 358 358 356 355 355 353 354 355 355 355 352 352 353 352 351 351 350 351 352 352 352 353 356 359 361 360 357 356 354 354 356 357 356 355 355 355 355 356 356 354 353 352 352 352 353 355 354 351 350 350 350 351 349 348 345 341 341 342 341 334 319 309 312 313
345 346 347 346 347 346 347 347 345 345 346 347 348 348 350 352 354 354 353 353 355 358 360 359 356 356 356 356 355 355 355 353 353 355 354 352 351 352 352 352 353 353 354 355 357 359 358 356 357 356 356 357 355 353 353 353 353 354 354 353 353 353 352 353 353 354 354 352 351 351 351 351 350 349 347 343 339 340 341 339 332 321 315 318 317
345 346 346 347 346 346 347 347 345 344 345 347 348 348 348 351 354 356 354 353 354 356 358 356 355 356 356 356 355 354 353 353 354 355 355 354 354 354 354 354 354 354 354 356 357 357 357 358 359 358 357 356 353 351 353 354 353 354 353 352 352 353 353 354 353 353 352 351 351 351 351 350 349 347 344 340 338 339 338 333 331 327 321 319 315
345 346 346 346 346 345 346 347 346 345 345 347 348 348 349 349 353 355 355 354 353 354 356 355 356 357 357 357 356 355 354 354 355 356 355 355 355 356 356 356 355 355 355 357 359 358 358 359 359 358 357 355 352 352 353 353 353 353 352 351 351 353 353 352 351 351 351 350 350 350 350 349 347 344 341 338 339 339 335 331 335 337 328 317 310
346 346 347 346 346 346 347 348 348 346 346 346 348 349 349 349 350 352 353 353 353 353 355 355 355 357 357 356 356 355 355 355 355 355 355 355 356 356 357 357 357 356 356 357 358 359 359 359 359 358 356 354 353 352 351 351 352 351 350 349 349 351 352 351 350 350 349 348 349 349 348 347 347 345 342 340 340 340 338 335 335 333 322 313 310
348 348 347 348 348 348 348 349 349 348 347 347 348 349 349 349 348 349 350 352 353 354 355 355 355 356 356 356 355 354 355 355 355 356 356 356 355 354 355 356 356 356 357 357 358 359 358 358 358 357 356 355 353 350 349 350 351 351 351 349 348 350 351 350 351 350 348 348 348 347 346 346 345 344 342 339 338 337 337 333 326 321 316 312 311
349 349 349 350 350 351 352 352 351 349 348 349 350 349 349 350 349 350 352 353 354 355 355 355 356 356 357 357 356 354 355 356 356 357 356 355 355 356 355 355 355 357 358 357 358 359 357 357 358 356 355 355 352 348 347 349 349 349 351 350 349 350 350 348 349 349 348 347 346 345 345 344 342 340 338 337 335 333 332 330 324 318 315 312 310
349 349 349 350 353 353 353 354 353 352 350 350 351 351 351 351 351 352 353 353 354 355 355 356 357 356 357 358 357 354 355 357 357 358 357 354 355 356 355 355 357 358 358 357 358 357 355 355 357 357 354 353 351 349 349 350 350 349 349 349 349 349 348 348 348 347 347 346 344 343 343 340 338 337 335 333 332 330 330 330 327 322 315 310 310
349 349 349 350 353 354 354 354 354 354 352 352 353 354 354 354 354 354 352 353 354 355 355 356 355 355 356 358 357 355 355 355 354 356 357 354 352 353 352 353 356 358 358 359 358 356 352 353 355 355 353 352 351 351 350 351 352 350 350 349 348 348 348 348 347 345 345 345 343 342 342 339 338 337 334 332 331 330 330 330 329 328 322 313 311
349 350 349 349 350 353 354 354 354 354 353 352 354 355 354 355 356 355 355 356 355 354 356 357 355 355 357 357 358 356 355 354 353 356 359 356 352 351 352 352 353 354 356 358 358 355 353 353 354 354 354 352 351 351 350 350 349 349 349 348 347 348 348 347 346 344 343 343 342 342 341 339 337 335 333 331 331 331 330 330 330 330 324 314 311
348 351 352 351 350 352 353 354 354 355 353 352 352 354 354 355 355 355 356 357 355 356 360 359 356 357 357 357 357 356 354 354 353 357 361 360 355 353 353 354 354 354 355 356 356 356 355 354 354 353 352 351 350 350 349 348 346 347 348 347 346 346 347 345 343 343 343 342 340 339 338 335 335 334 332 330 330 330 330 330 329 328 325 319 317
349 351 351 351 351 351 351 353 354 354 353 352 353 353 353 354 355 355 355 355 354 355 358 357 356 357 357 357 356 353 352 354 354 356 360 360 358 356 356 356 356 355 354 353 353 354 353 353 352 350 348 348 347 345 345 346 346 347 348 345 343 343 344 343 341 341 342 341 339 338 335 332 331 330 327 326 327 328 329 329 329 328 328 326 324
349 351 351 351 351 351 351 351 352 352 352 353 354 353 353 354 354 354 354 354 354 354 354 354 355 355 355 355 356 354 352 354 356 357 357 356 357 358 357 357 356 354 353 350 350 351 351 351 350 347 344 344 343 340 340 344 345 347 346 344 341 340 340 338 336 337 340 341 339 335 331 328 327 324 321 319 319 322 323 323 324 324 323 322 320
349 350 350 351 352 352 351 351 351 350 351 352 353 352 351 352 353 353 353 354 354 353 353 354 354 354 353 354 356 357 354 353 355 356 355 354 355 358 357 355 354 352 350 348 348 348 348 347 345 342 338 339 338 336 338 343 345 344 341 339 338 338 336 333 333 334 336 338 336 332 328 326 324 323 321 317 313 312 313 313 314 314 314 314 314
351 351 350 351 352 352 352 352 352 351 350 350 352 352 351 351 351 353 354 354 353 353 352 353 353 352 353 355 356 356 355 354 354 354 354 353 354 356 355 352 350 348 348 347 346 346 344 342 339 336 334 333 332 332 336 341 343 342 338 336 336 336 333 331 331 330 331 332 331 329 327 326 324 324 323 319 314 313 313 312 313 313 313 313 312
353 353 352 352 352 352 353 353 353 353 353 352 351 351 350 350 351 352 353 352 353 353 352 353 353 352 355 357 356 354 355 356 355 355 355 354 353 355 353 349 346 345 344 342 339 338 337 335 332 330 328 325 324 325 330 337 341 341 340 339 338 336 332 330 329 327 327 328 328 327 327 326 324 322 321 319 319 319 318 316 316 316 315 315 315
352 352 353 354 353 353 354 355 355 355 355 353 351 350 349 350 350 351 352 352 352 353 352 353 354 354 355 357 356 353 354 356 357 356 356 354 353 354 352 347 345 343 339 335 333 332 332 331 329 327 326 324 323 324 328 334 338 339 340 339 337 333 330 328 326 325 325 326 326 325 324 323 321 321 322 322 322 322 321 320 319 319 318 319 320
351 351 353 355 355 355 355 355 356 355 355 354 353 352 351 350 351 351 352 353 353 353 354 355 355 355 355 356 356 354 354 356 357 356 355 353 353 355 352 348 345 340 335 331 331 332 332 332 330 328 327 326 325 325 329 332 334 334 335 336 335 332 329 326 324 324 323 323 324 323 322 321 320 321 323 324 325 324 323 322 321 321 320 320 322
Wind_Speed
16 14 14 14 13 12 12 12 12 10 9 11 11 10 10 9 6 5 6 6 7 7 4 6 13 12 8 9 10 9 10 9 7 4 3 4 4 3 2 2 2 3 4 3 3 4 5 5 5 4 4 4 2 2 2 2 2 2 4 5 5 6 6 7 8 8 9 10 10 11 12 12 12 10 9 9 9 9 10 10 11 11 11 11 11
16 15 14 13 12 12 12 11 11 10 9 10 11 9 8 8 7 5 4 4 7 8 8 7 11 12 10 11 11 10 9 9 8 7 4 2 4 4 2 1 2 2 3 4 4 5 5 5 5 4 4 3 2 2 2 3 3 4 4 4 5 5 6 7 8 9 9 9 10 11 12 11 10 8 7 8 9 10 11 11 12 11 11 11 10
16 16 14 11 10 12 13 11 10 9 9 10 10 8 7 7 9 7 2 2 8 9 8 8 9 9 11 12 12 10 9 10 10 10 7 3 3 4 3 2 2 2 3 4 4 5 6 5 5 4 3 3 2 2 3 4 4 3 3 3 4 5 5 7 8 10 10 9 10 11 11 9 8 7 7 8 10 11 12 12 12 12 12 11 10
15 14 11 9 10 10 11 10 10 9 8 10 9 8 8 8 7 6 4 3 7 8 4 8 11 8 9 11 12 11 8 10 11 11 8 4 2 2 3 4 3 2 2 3 4 4 5 4 4 3 3 3 3 3 4 4 4 3 3 3 4 5 6 7 8 10 10 9 10 10 9 7 7 7 8 9 10 11 12 11 12 12 12 12 10
11 11 9 7 8 8 9 10 9 9 8 9 9 8 7 7 3 3 6 5 7 8 3 7 12 7 8 10 11 10 6 7 10 10 8 7 4 1 2 2 3 3 1 1 2 4 4 4 4 4 4 4 4 4 4 5 4 4 4 4 4 5 6 7 8 9 10 9 9 9 8 5 6 8 8 9 9 10 11 11 11 11 11 11 10
8 11 8 5 6 7 10 10 8 8 9 10 9 8 7 6 4 4 6 6 7 7 4 5 9 6 7 10 11 8 5 7 9 8 9 10 5 2 1 1 1 2 2 1 1 2 3 4 6 6 6 6 6 6 6 6 6 5 5 5 5 5 6 7 9 10 10 10 8 8 7 4 5 7 8 8 9 10 10 10 11 11 10 10 11
10 12 8 5 6 6 8 8 7 8 9 10 8 7 7 7 8 9 7 8 8 6 4 6 8 6 5 8 10 10 8 7 7 8 9 8 5 3 3 1 2 2 1 0 1 1 1 3 4 6 7 7 7 7 7 7 7 6 6 6 6 6 7 7 9 10 10 10 9 7 6 5 5 7 8 8 9 10 11 11 11 11 11 11 11
10 9 5 5 9 8 6 6 6 8 9 8 8 7 7 7 9 10 9 9 10 8 7 6 7 6 4 5 6 6 7 5 3 7 10 8 7 7 5 2 1 3 4 4 3 2 1 2 2 4 5 6 7 7 8 8 7 7 7 7 7 7 8 8 9 10 9 10 9 7 6 5 5 7 8 8 9 10 11 12 11 11 11 11 11
8 8 5 4 9 11 9 6 6 10 11 11 10 8 7 8 8 6 6 7 7 7 7 7 7 6 5 6 5 3 5 5 2 7 9 6 6 8 8 6 5 5 5 5 4 4 4 3 2 3 4 4 5 5 6 7 7 8 8 7 8 8 8 8 8 8 9 10 9 7 6 5 5 7 8 9 10 10 11 12 11 11 12 11 11
8 10 9 3 4 11 10 7 9 11 11 12 11 8 5 6 4 2 3 7 5 7 7 8 9 8 7 8 6 2 3 4 3 7 6 2 4 5 6 7 6 4 3 4 6 6 7 6 4 4 4 3 4 5 6 6 6 7 8 8 8 8 8 8 7 7 7 9 9 7 6 6 6 8 8 9 10 11 11 11 12 12 12 11 11
9 11 10 6 6 11 10 9 11 10 8 9 9 7 6 4 3 3 5 8 8 8 9 6 4 5 7 7 6 4 3 4 2 2 3 4 5 3 4 7 7 6 7 7 8 8 7 7 7 5 4 5 6 6 6 6 6 6 7 8 9 9 8 8 7 6 6 8 8 6 5 6 7 7 8 9 10 11 11 11 12 12 12 11 11
10 12 11 10 12 14 12 10 10 7 6 7 7 7 7 5 5 3 4 7 6 5 6 5 2 6 7 7 5 4 4 4 5 7 7 6 6 3 5 7 6 6 8 8 8 7 8 9 8 7 5 7 9 7 6 6 6 7 7 8 9 9 8 7 6 5 5 7 7 6 5 6 7 7 8 10 11 11 11 11 12 12 12 11 11
9 11 10 11 15 16 13 10 8 8 8 9 7 6 7 5 6 5 4 6 6 4 5 5 7 4 4 5 6 7 7 5 6 8 6 3 4 3 4 5 4 4 7 8 7 7 8 10 9 9 8 8 9 9 8 7 7 7 8 8 9 9 8 7 6 5 5 6 7 6 5 6 7 8 9 10 10 10 11 11 11 11 11 11 11
10 10 8 10 13 13 12 10 9 10 9 7 5 5 6 4 3 6 6 8 5 6 5 7 8 4 3 2 5 10 7 4 7 7 4 1 2 3 3 4 7 7 8 8 8 8 9 8 8 9 9 9 9 9 9 9 9 9 8 9 10 9 7 7 6 5 4 5 7 6 5 6 7 8 9 9 10 10 11 11 11 11 11 11 12
14 12 9 9 10 10 10 11 10 10 8 6 5 5 6 4 1 3 6 7 3 3 3 5 4 2 4 2 1 4 1 3 7 5 4 2 4 7 5 4 6 8 8 6 8 9 9 7 7 8 9 8 8 8 9 9 9 10 9 8 9 8 6 6 5 4 4 5 5 5 5 5 6 7 8 9 9 10 11 11 11 11 12 12 12
17 15 11 7 9 9 10 11 11 11 9 8 6 4 4 4 0 2 3 2 1 1 1 3 1 1 4 1 0 1 1 2 5 4 5 7 12 12 9 5 3 7 8 6 7 9 11 11 10 10 11 8 8 9 8 8 9 10 9 6 6 6 5 5 5 4 3 4 5 5 4 5 6 6 7 8 9 10 10 10 11 11 12 12 12
19 18 13 8 9 9 10 11 12 12 10 8 6 3 3 3 3 2 2 2 2 3 3 5 4 3 2 1 2 1 1 1 5 5 3 8 14 11 8 8 5 7 8 6 5 5 12 15 11 9 9 6 7 7 7 7 8 9 7 5 4 5 4 4 4 3 3 3 4 4 4 4 4 5 7 8 9 9 10 10 11 11 12 12 12
20 20 17 14 12 12 12 11 12 12 9 7 7 6 7 6 5 4 3 3 3 6 6 5 4 2 1 1 2 1 1 0 1 1 2 2 6 5 6 10 5 4 5 3 4 2 10 14 9 6 6 4 5 6 6 7 9 9 6 5 5 4 4 4 4 4 3 3 4 3 3 3 3 5 6 8 8 9 10 10 11 12 12 12 12
18 20 21 20 17 16 14 12 12 12 11 10 8 8 8 7 7 6 5 4 4 6 7 4 3 2 3 3 2 2 2 1 2 2 1 4 6 6 4 8 2 2 3 3 4 5 7 7 3 3 5 5 7 6 5 6 9 8 7 6 6 5 4 5 5 4 3 3 4 3 2 2 2 4 6 7 8 9 9 10 11 12 13 13 13
16 17 19 19 17 15 14 14 13 12 12 12 10 10 10 8 7 7 7 5 3 5 6 3 3 3 4 6 3 2 5 3 4 4 2 1 5 5 1 3 2 2 3 5 6 5 3 4 5 5 5 6 8 7 5 4 5 7 8 7 6 5 4 5 5 4 3 3 4 3 2 1 2 3 5 6 7 9 9 10 11 12 12 13 12
15 16 17 17 16 14 14 14 14 14 13 12 11 10 9 8 7 8 8 6 4 4 5 3 2 3 3 6 5 4 6 6 7 7 4 3 2 4 6 6 3 4 1 4 4 3 3 6 9 8 5 4 7 5 3 2 3 5 7 7 6 5 4 5 5 5 4 4 4 3 2 1 2 3 4 6 7 8 9 9 11 12 12 12 12
16 15 15 16 16 15 14 13 13 14 12 11 11 10 9 8 9 10 8 6 5 4 3 2 2 2 1 2 3 4 4 6 8 6 5 5 3 3 7 8 3 3 2 6 4 2 4 7 6 4 2 2 4 3 2 2 4 5 4 6 7 5 4 4 5 5 4 4 4 4 3 2 2 2 4 5 6 7 8 9 10 11 12 12 11
16 16 15 15 16 16 14 13 13 12 11 11 11 10 9 8 8 9 7 6 5 4 2 2 2 1 1 1 0 2 1 3 4 3 4 5 3 2 7 10 7 3 3 6 5 2 3 4 1 2 2 0 0 1 1 1 3 5 4 6 6 4 3 3 5 5 4 5 5 5 5 4 3 3 3 4 5 6 7 8 9 10 11 11 11
17 16 16 15 16 16 15 15 14 11 11 11 10 10 10 10 10 9 8 7 6 4 4 3 2 2 2 2 1 2 2 1 0 2 5 4 3 1 7 12 8 3 4 5 4 2 2 0 2 3 2 0 1 2 1 1 2 4 3 6 6 4 3 2 4 4 4 5 6 6 6 5 5 3 3 3 4 5 6 7 8 10 10 11 10
18 17 16 16 17 16 16 16 14 13 13 12 11 11 11 11 11 9 8 8 6 5 5 4 4 4 3 3 3 4 3 3 3 3 2 3 2 1 8 14 7 2 4 4 2 1 1 1 3 4 3 0 1 2 1 1 2 2 2 4 6 4 3 4 3 4 4 5 6 7 7 7 6 5 3 3 3 4 5 6 7 9 9 10 10
18 18 17 17 17 16 16 16 14 14 13 12 12 12 11 10 10 9 8 8 7 7 6 5 5 5 5 5 4 4 5 5 6 7 3 2 2 2 7 11 8 5 3 3 1 0 1 1 1 1 0 2 1 0 2 3 2 2 3 5 5 4 3 5 3 2 4 5 7 7 7 8 7 6 4 3 3 3 4 5 6 7 8 8 9
16 17 17 17 17 16 16 16 15 14 13 11 12 11 10 10 11 10 10 9 9 8 6 6 6 6 5 6 6 6 6 6 6 8 6 4 5 5 7 8 4 3 4 1 1 1 0 3 3 2 4 4 2 2 4 3 2 3 4 5 4 3 4 4 3 1 2 4 6 7 8 9 9 7 5 4 3 3 3 4 5 6 7 8 8
15 15 15 15 16 16 16 16 15 15 13 12 12 11 11 10 11 10 9 9 9 9 8 8 7 7 7 7 8 8 8 6 5 8 9 8 6 5 8 8 2 0 3 2 0 1 1 5 4 2 4 4 4 4 4 3 4 3 2 5 6 4 4 5 3 2 2 3 5 7 8 9 9 7 5 5 4 3 2 3 3 5 6 7 8
15 15 15 15 16 17 16 16 16 15 14 14 13 13 13 12 11 10 9 8 10 11 10 9 9 10 9 9 9 8 8 8 7 7 8 8 7 5 7 6 2 1 1 1 2 2 3 5 4 2 5 6 5 4 4 4 6 3 1 5 7 6 7 6 5 4 5 5 5 7 8 9 9 8 6 5 4 3 2 2 3 4 6 7 7
16 16 16 17 17 17 17 16 17 16 15 15 14 14 15 14 12 12 11 11 12 12 12 11 10 11 10 9 11 10 8 9 7 5 7 8 5 5 5 3 1 1 2 1 2 2 4 6 4 4 7 6 5 5 4 4 4 1 1 3 4 5 6 5 5 7 7 6 6 7 8 10 10 9 7 6 5 3 2 2 3 5 6 6 7
17 18 18 18 17 17 17 16 17 17 16 16 15 16 16 15 14 13 13 13 13 12 11 11 10 11 11 11 11 10 8 8 6 5 7 6 5 4 3 3 3 3 3 3 2 2 4 6 5 6 7 6 6 6 4 4 1 2 2 7 8 6 5 5 7 8 7 7 7 7 8 10 10 9 8 6 5 3 2 2 4 5 5 6 6
17 17 18 18 18 17 17 16 17 17 17 16 17 17 17 16 15 14 14 15 14 12 11 11 12 12 12 10 10 9 7 7 6 6 6 5 5 6 4 3 4 4 6 7 4 3 5 5 6 8 7 5 7 7 5 5 1 3 2 8 9 9 9 9 9 8 8 7 7 8 8 10 10 9 7 6 5 3 2 2 4 4 4 5 6
17 17 16 17 19 18 17 17 17 17 18 18 17 18 18 17 16 15 13 15 16 14 13 13 13 11 10 9 9 9 8 8 7 6 6 5 5 6 4 4 4 5 7 7 5 5 5 5 6 7 6 3 6 8 6 6 2 2 2 6 8 9 9 8 7 7 7 6 6 7 8 10 10 8 7 5 4 4 2 3 3 3 4 5 5
17 18 17 17 18 19 18 18 18 18 19 19 17 18 19 18 16 14 13 14 16 15 14 14 13 11 10 10 10 10 9 9 9 7 6 5 4 4 4 5 4 4 4 5 4 3 4 6 6 7 6 3 7 9 7 6 4 2 4 6 7 9 7 4 4 5 5 5 5 5 7 9 9 8 6 5 4 4 1 2 2 3 4 5 5
18 18 18 17 18 19 19 19 19 19 20 21 19 18 19 19 17 15 14 15 17 17 15 14 13 12 11 11 10 10 10 9 9 8 6 5 3 3 3 4 3 2 0 1 2 2 2 6 6 8 8 7 10 12 10 9 9 7 8 7 7 7 6 3 3 4 3 2 2 4 7 7 7 6 5 4 5 3 2 1 1 3 4 4 5
18 19 19 18 18 18 17 18 19 19 20 22 20 18 17 17 16 16 16 16 16 17 15 15 14 13 13 12 11 11 10 9 9 8 6 4 4 4 3 4 4 3 2 1 3 2 1 3 5 8 9 8 9 9 8 7 6 5 6 7 7 6 5 3 3 3 2 0 1 4 5 5 5 4 4 4 4 3 2 2 2 2 3 3 4
16 18 19 19 19 18 17 17 18 19 19 19 19 18 16 16 17 17 17 15 15 15 15 16 14 14 14 13 11 11 11 10 9 8 5 4 4 3 3 4 4 5 4 3 3 3 3 4 5 6 6 7 7 7 7 6 4 3 5 6 6 5 4 3 4 5 3 2 2 3 4 4 4 4 4 4 4 4 4 3 2 2 3 4 4
15 16 18 18 18 18 18 17 17 18 18 17 17 18 17 17 18 18 17 16 15 15 15 16 15 14 13 12 11 11 11 10 9 8 7 6 6 4 3 5 6 6 4 3 3 4 3 4 4 3 5 7 6 5 7 8 7 7 8 8 5 4 3 3 4 4 3 3 2 3 4 4 4 4 4 4 3 3 2 2 1 3 4 4 4
17 16 17 18 18 18 18 18 17 17 18 17 17 18 18 17 16 16 16 16 16 15 15 15 15 14 13 12 12 11 11 11 9 8 8 8 6 5 4 4 5 6 4 2 3 4 3 3 3 3 5 6 5 5 6 7 7 8 9 9 6 4 4 3 2 2 2 2 2 3 4 3 3 3 4 3 3 2 3 4 6 6 5 5 5
19 17 17 18 19 18 18 19 18 18 18 18 18 18 18 18 16 15 16 17 16 15 15 14 13 13 12 12 12 10 10 11 10 9 9 8 5 5 5 5 5 5 5 3 3 3 3 3 3 3 3 4 4 6 8 7 8 8 6 6 5 3 3 2 1 3 4 4 4 5 5 4 6 7 6 6 8 8 7 8 8 6 6 6 5
20 19 18 18 19 19 19 19 19 19 18 19 20 19 19 19 18 16 18 19 17 15 14 13 12 12 12 11 9 9 10 11 10 10 10 8 5 5 5 4 4 6 6 5 3 3 2 2 2 3 3 3 4 8 9 8 8 7 4 4 3 1 2 2 2 4 4 4 6 7 5 6 10 12 11 11 11 10 8 8 9 8 8 6 5
20 20 20 19 18 18 19 19 19 19 18 18 19 20 20 19 18 18 17 16 16 14 13 13 13 12 10 9 8 9 12 12 11 9 9 8 6 7 7 6 7 7 6 5 4 3 3 2 1 2 3 3 3 5 7 6 6 5 4 5 5 3 1 1 1 2 2 3 6 6 3 6 12 15 14 13 11 8 6 6 7 8 7 6 5
19 19 20 20 19 19 19 19 19 19 19 19 21 22 22 20 18 17 14 11 12 12 10 11 13 11 9 9 10 11 12 13 9 9 10 9 8 8 9 8 9 9 7 5 3 2 2 1 1 2 2 3 3 3 4 4 5 5 4 5 5 4 2 2 3 3 2 5 8 10 9 9 13 15 13 11 8 6 5 4 4 5 6 5 5
20 20 20 20 18 17 19 19 19 19 18 17 19 22 23 22 20 17 12 11 11 11 10 10 11 10 8 9 11 12 11 11 10 10 10 9 8 8 7 7 8 9 8 6 4 2 2 2 1 2 3 4 4 4 4 5 7 7 5 5 5 5 6 6 5 6 8 10 14 17 16 12 11 12 11 8 6 5 4 4 4 4 4 4 4
17 19 21 21 19 17 18 19 20 21 19 16 16 19 22 23 23 20 16 14 14 14 13 12 11 10 10 10 11 12 10 10 12 11 9 8 9 8 6 5 5 5 3 2 1 1 1 0 2 5 4 3 3 3 3 4 6 4 4 6 8 8 10 11 10 9 10 13 16 18 17 11 8 9 12 10 8 7 7 5 4 4 3 3 3
15 16 18 20 20 19 18 18 18 19 19 17 15 16 19 21 23 23 19 16 14 14 15 14 13 13 13 12 11 11 11 11 12 12 11 10 10 8 6 6 4 3 3 3 4 4 4 3 4 5 3 1 2 1 2 5 5 4 5 7 9 12 14 14 12 10 10 11 14 16 14 9 7 10 12 11 10 10 9 8 7 6 5 5 5
17 18 17 18 19 20 20 19 18 18 19 19 18 16 17 18 20 21 21 18 15 14 14 14 14 14 13 12 11 12 13 12 13 14 13 11 10 9 8 8 7 6 6 5 4 4 4 4 3 3 3 3 3 3 5 8 7 6 7 10 12 15 17 16 14 12 11 9 9 11 12 9 8 11 12 9 10 11 10 10 9 8 8 8 8
15 17 19 20 20 20 21 21 20 20 19 19 20 19 18 18 18 20 21 19 17 16 15 15 15 15 14 14 13 11 12 12 13 14 13 10 10 10 9 9 8 8 7 5 4 3 4 4 4 5 6 5 4 4 6 9 9 8 10 12 13 15 16 16 14 13 13 11 8 10 13 11 10 12 10 5 7 10 9 9 9 8 8 9 10
17 16 18 20 21 21 21 22 22 22 21 19 19 20 20 20 20 21 21 19 17 17 16 16 16 15 15 16 13 10 11 12 12 12 11 10 10 10 10 10 10 9 8 7 8 7 8 9 9 9 10 8 7 7 6 8 8 8 10 11 11 12 14 14 12 11 12 12 10 10 13 12 8 9 9 6 5 7 7 8 8 7 7 8 10
26 21 17 18 20 21 21 22 22 23 21 20 20 21 22 23 23 23 21 18 16 16 16 16 16 14 14 15 12 11 11 11 10 11 11 10 9 10 12 13 12 11 10 12 14 14 14 14 14 14 14 13 12 10 8 9 9 9 10 11 11 12 14 14 14 13 12 12 11 11 11 10 7 6 6 6 5 4 4 6 7 7 6 6 6
28 25 21 18 19 21 23 23 23 23 22 21 19 20 22 24 25 22 19 16 16 15 16 16 16 15 14 12 12 12 11 10 11 12 11 10 10 11 13 14 13 12 13 14 16 16 14 13 14 14 14 13 14 12 11 11 12 11 12 12 11 12 14 15 16 14 9 8 10 10 9 8 6 4 3 3 4 3 1 2 3 5 6 6 5
Wind_Direction
166 164 164 167 173 176 173 168 173 178 175 176 184 201 204 197 195 213 215 181 143 138 154 123 118 121 119 119 115 102 97 100 111 116 40 55 78 77 113 176 180 178 178 172 174 168 165 175 178 171 169 169 177 242 267 273 266 269 301 309 318 328 336 341 340 340 337 333 334 334 331 330 330 331 331 334 336 335 334 336 335 332 328 322 316
167 170 168 165 169 181 177 169 181 190 190 182 187 206 197 177 185 198 214 180 151 153 162 137 118 129 134 126 124 115 114 126 130 125 112 82 68 64 82 121 167 177 174 171 172 171 171 175 176 173 178 189 200 240 265 275 284 295 308 317 330 338 340 343 346 350 350 345 343 341 336 336 338 342 348 351 349 346 345 345 343 340 337 332 329
175 175 169 164 171 189 188 179 186 188 182 175 183 196 176 174 193 198 223 145 159 174 179 152 127 140 148 132 129 129 137 153 144 136 140 125 64 74 93 102 144 170 167 171 175 176 177 179 184 189 196 208 229 255 272 280 290 297 311 326 331 336 340 344 351 357 359 354 349 346 344 347 355 2 5 2 357 351 351 351 348 347 348 343 338
182 181 175 179 188 194 188 178 177 174 168 167 175 181 172 182 205 210 198 139 162 180 186 156 142 149 154 135 134 137 155 171 150 140 139 116 82 83 95 106 113 132 168 179 184 190 194 198 204 210 226 245 256 273 286 294 300 306 316 322 325 332 335 341 350 358 1 358 353 349 348 355 7 11 7 3 357 351 353 353 352 357 2 358 353
187 195 193 188 184 177 173 174 173 168 170 172 172 173 173 184 214 216 183 169 174 180 199 163 148 155 159 137 132 138 174 185 146 137 136 133 164 192 63 95 98 96 127 192 200 213 220 228 238 245 254 261 266 276 284 291 300 304 307 310 318 324 327 335 342 352 358 356 353 348 346 357 6 6 2 359 354 352 354 353 355 3 10 8 4
168 180 173 161 161 165 179 187 180 163 165 169 166 166 171 185 194 177 176 178 170 174 201 166 147 161 164 137 134 149 178 172 147 141 144 146 163 176 68 32 36 75 101 147 199 240 247 252 256 259 263 267 271 276 281 287 292 295 300 305 309 314 317 325 332 342 351 351 351 347 344 349 350 354 356 354 353 351 351 353 357 2 6 8 5
153 167 162 159 167 176 188 185 175 153 147 159 165 173 176 181 184 183 191 182 166 171 179 152 143 141 127 125 152 174 168 155 159 156 152 154 154 166 190 303 343 348 2 265 272 293 273 281 271 266 269 271 275 279 283 286 289 292 298 302 304 308 311 315 324 333 343 347 347 346 346 341 334 342 350 351 350 350 352 355 357 359 0 1 1
156 170 168 167 169 176 171 159 165 157 158 173 172 181 197 204 202 202 208 188 175 189 181 132 112 110 98 111 136 150 147 155 177 157 154 156 157 174 197 212 235 262 277 278 291 314 308 304 285 272 272 272 277 280 284 287 289 293 295 299 300 301 307 310 318 327 337 343 345 345 345 337 330 340 348 350 351 352 355 357 357 359 1 359 357
156 155 147 150 165 162 144 148 181 170 175 186 180 188 205 203 205 209 220 208 178 165 155 137 135 151 161 149 136 101 143 176 57 100 132 145 176 184 179 188 206 230 260 269 277 293 288 285 283 286 281 268 272 278 282 286 288 293 292 294 297 299 305 307 311 323 334 342 344 344 343 335 335 345 350 351 353 356 357 357 358 1 3 0 357
153 141 137 105 149 158 152 183 198 182 182 184 180 188 182 177 207 260 229 224 192 145 156 176 173 178 178 157 159 129 130 183 59 81 127 167 221 192 166 187 200 203 229 225 237 273 285 284 276 277 284 270 275 283 281 288 293 294 291 290 293 296 303 304 307 317 331 343 345 343 341 339 343 349 351 352 354 359 358 357 359 2 4 2 0
148 139 144 129 147 170 182 199 188 178 184 177 168 169 160 164 233 274 199 201 206 184 179 184 130 127 162 150 146 145 137 192 186 130 188 221 222 207 191 200 199 210 226 220 231 255 262 267 273 277 290 284 286 289 282 292 299 296 291 289 291 294 301 302 302 312 329 342 344 342 346 345 349 351 351 354 357 359 358 358 1 2 2 1 2
142 140 152 156 169 183 187 183 168 153 144 143 141 140 140 158 196 222 181 184 209 188 156 177 143 80 114 132 131 155 169 195 208 211 220 208 198 228 237 215 197 208 228 235 235 237 239 253 269 279 281 276 285 295 293 295 300 300 292 285 286 289 297 298 296 304 323 341 342 340 350 352 351 351 352 357 359 359 358 360 3 4 1 1 3
145 138 153 172 182 185 178 164 150 137 120 117 112 111 115 143 190 195 192 203 204 164 115 158 183 126 114 170 180 181 185 201 217 221 223 185 182 242 260 220 204 203 227 242 236 234 249 256 264 276 275 263 274 293 301 301 300 300 290 281 280 280 290 295 292 297 312 336 342 339 350 354 351 353 355 359 360 360 1 2 6 6 3 0 1
152 140 163 185 175 168 165 153 137 135 127 116 95 93 108 112 177 191 224 243 212 169 151 151 176 177 154 197 191 178 178 209 230 219 204 92 177 239 270 220 227 243 244 244 240 244 262 270 271 280 280 262 263 282 295 300 300 297 295 289 277 270 281 290 287 290 303 329 341 340 345 349 351 355 357 359 1 3 4 5 8 9 6 2 3
157 160 186 188 156 143 150 145 137 141 139 133 118 106 106 80 39 233 258 264 216 162 158 159 199 186 118 59 218 177 135 261 254 222 177 251 236 216 226 230 242 245 243 250 254 262 271 267 266 268 263 263 275 284 284 290 293 292 301 297 272 262 274 284 282 279 294 322 337 338 340 345 350 357 359 0 4 6 7 8 12 12 8 6 6
164 171 187 176 144 143 150 149 148 151 147 139 130 107 86 64 30 239 315 321 158 88 74 139 196 86 115 71 20 83 359 280 316 42 121 206 215 205 207 222 243 219 224 241 246 276 275 251 257 259 248 262 290 290 279 281 285 284 294 290 262 266 276 274 271 267 285 315 330 333 335 341 349 357 359 2 8 8 8 12 15 13 9 7 7
168 164 174 164 145 157 160 156 154 149 144 140 138 143 136 139 158 136 55 52 76 62 83 110 90 75 109 93 80 74 237 286 354 37 124 195 195 186 178 179 178 185 206 220 203 284 277 255 262 262 245 259 281 285 284 283 293 292 286 280 273 279 278 265 257 257 278 308 325 329 327 334 348 357 359 5 12 11 11 15 16 13 9 8 8
168 160 171 168 161 174 168 157 154 148 152 156 158 172 174 164 144 113 100 110 81 67 70 74 63 52 5 263 212 187 178 175 39 88 341 304 207 195 155 160 171 189 199 200 170 248 270 264 270 258 250 255 255 283 304 296 304 301 278 277 287 274 260 255 245 251 274 305 319 316 312 329 346 355 359 6 12 13 14 16 15 13 11 10 11
168 161 172 172 168 174 169 161 159 155 159 163 163 169 164 148 137 134 128 112 83 77 77 56 36 33 357 333 260 261 320 356 72 122 5 344 281 262 167 152 189 258 180 185 214 225 247 262 269 258 264 248 237 258 280 289 301 290 267 279 293 278 261 255 241 250 275 303 314 300 293 323 341 352 358 6 11 15 16 15 14 14 13 13 14
169 165 167 171 171 168 164 162 162 163 166 166 165 158 148 147 154 156 137 110 92 92 94 84 59 65 19 8 15 317 328 6 69 91 116 340 281 273 102 122 128 122 162 199 223 229 225 217 226 263 281 255 249 251 245 273 298 278 268 282 295 289 269 252 238 246 274 299 304 287 272 305 329 347 354 2 9 14 16 15 15 16 15 16 16
170 171 162 165 171 171 168 162 165 174 177 175 169 156 150 158 163 153 137 125 126 104 90 90 79 77 36 21 24 349 345 26 63 68 63 44 353 342 344 331 12 66 342 252 231 237 249 235 241 267 292 266 254 255 240 256 281 274 272 282 291 293 277 251 235 240 265 287 286 264 243 258 297 334 349 357 7 12 15 15 15 18 17 16 17
170 173 166 165 171 175 173 165 169 177 180 178 169 163 163 165 162 152 147 155 150 123 91 102 123 95 55 4 357 346 3 37 53 62 60 68 60 329 299 289 306 63 329 281 254 210 240 254 257 262 289 259 238 227 196 231 265 267 286 304 298 286 275 252 238 243 257 264 255 237 226 229 260 309 338 348 3 9 12 15 17 18 16 16 18
171 173 172 172 174 176 173 168 176 178 172 169 166 167 165 163 168 162 160 163 153 149 154 142 151 165 243 230 273 337 347 27 47 92 93 96 111 314 298 291 285 252 257 270 259 206 217 261 294 103 110 347 265 233 197 221 250 244 291 329 323 305 290 257 242 245 245 241 233 222 218 221 242 276 318 340 358 4 9 15 16 17 16 17 20
172 174 176 177 175 177 175 173 179 178 167 164 166 170 169 170 175 174 172 165 158 181 191 175 196 227 276 276 246 293 296 345 87 136 108 112 148 248 282 280 276 250 252 260 257 222 192 278 77 104 112 98 359 357 24 104 204 233 308 334 330 336 339 303 258 242 231 226 221 218 217 221 234 256 296 327 347 357 7 13 15 16 17 18 21
173 176 179 178 176 179 177 174 178 178 173 172 174 176 179 183 179 175 180 173 173 193 189 191 221 231 256 263 263 284 272 232 237 236 123 113 146 241 281 280 278 263 243 228 235 238 199 69 78 100 103 109 344 15 3 278 220 226 341 324 311 323 360 355 305 239 228 222 220 221 220 224 234 245 271 304 328 347 2 11 15 16 18 19 22
177 179 182 178 176 179 177 176 178 179 179 178 179 182 184 186 179 177 186 188 192 195 191 207 225 229 243 252 260 268 258 261 270 263 237 154 197 231 282 286 286 295 271 215 197 6 199 27 58 112 308 300 336 5 283 304 294 300 333 318 309 300 304 347 352 245 232 225 226 227 224 228 234 237 252 276 302 331 355 9 14 15 18 21 21
183 182 184 178 173 177 178 178 177 178 183 177 175 183 186 187 188 190 192 193 198 199 201 220 226 229 241 249 252 253 263 281 280 272 267 234 233 243 264 280 291 311 301 238 137 96 305 328 319 282 298 309 336 316 295 312 305 300 322 320 314 292 282 316 353 340 253 233 232 232 229 233 234 235 245 259 277 311 346 6 10 11 17 20 22
184 182 186 180 173 176 179 180 179 180 187 183 179 187 193 196 199 201 199 197 204 206 210 224 227 231 242 244 246 256 268 268 251 267 269 241 226 241 262 271 269 18 312 315 96 143 328 334 330 310 315 320 333 323 299 297 293 285 314 321 319 312 289 285 286 303 302 269 251 242 238 237 236 234 237 250 264 288 332 360 1 7 16 20 21
184 183 184 183 179 180 183 184 184 185 190 189 190 195 198 200 205 209 208 207 214 213 213 227 234 239 245 239 241 251 253 247 245 259 256 232 219 229 248 253 201 156 292 328 321 330 353 346 337 322 318 318 324 312 279 284 301 298 345 339 336 332 318 294 264 270 298 292 271 255 243 234 234 232 227 240 254 265 312 342 348 2 13 16 18
186 185 183 185 186 186 187 189 188 189 193 192 193 200 199 199 207 215 214 215 223 219 215 226 240 247 246 235 241 248 243 244 246 240 232 223 220 236 246 248 206 176 173 202 287 314 336 335 328 327 325 320 326 321 287 281 296 296 309 296 285 298 310 298 276 282 290 288 278 263 243 229 230 229 220 226 239 248 283 322 347 1 7 12 16
188 187 183 185 189 190 191 193 191 191 197 197 196 202 203 203 207 213 214 217 225 223 218 228 241 248 244 238 243 245 242 251 251 243 242 230 221 236 249 240 218 192 186 201 226 259 304 317 317 328 327 312 314 312 274 257 222 134 256 267 264 279 295 297 294 285 273 273 274 261 239 224 223 223 217 215 226 239 267 313 347 356 0 14 19
190 187 186 185 189 193 194 197 196 193 197 200 198 202 207 207 208 211 215 216 222 225 225 230 240 245 241 239 246 245 248 260 260 257 256 239 226 233 244 240 219 215 214 207 216 263 291 305 310 325 332 316 310 305 278 270 221 141 277 289 297 310 308 302 301 286 266 265 267 256 232 215 214 219 215 209 217 233 259 318 347 356 4 22 24
192 188 191 193 191 193 197 202 201 196 197 201 201 201 205 209 212 216 219 213 213 220 227 233 242 252 248 238 242 247 251 258 259 262 265 257 236 220 224 232 214 217 221 213 230 271 294 317 326 331 333 310 302 308 304 304 318 115 305 309 320 326 319 307 302 289 274 265 261 249 216 205 210 216 214 207 214 227 261 327 350 15 26 32 29
195 192 196 200 197 195 198 204 205 201 199 201 205 205 203 208 215 219 220 214 211 216 226 234 240 247 249 243 241 244 248 247 246 252 255 255 247 216 225 248 234 217 214 214 229 245 289 319 328 325 320 317 327 333 332 329 359 20 317 326 343 347 351 339 318 307 284 264 251 225 200 203 212 212 213 212 214 225 278 332 1 50 47 36 25
197 198 199 202 204 200 200 204 207 206 202 199 206 211 204 203 210 218 223 220 216 217 223 232 236 238 243 243 241 241 243 240 237 242 244 248 264 249 248 275 285 288 275 227 250 243 297 315 319 323 327 344 358 3 360 354 9 3 338 357 6 350 360 6 326 322 303 272 224 195 191 202 209 207 211 212 216 238 278 312 63 68 50 26 16
198 200 201 204 208 209 207 206 206 208 206 198 202 212 209 202 207 219 226 224 219 217 222 229 233 234 237 241 241 241 245 244 237 239 243 252 272 276 280 297 308 310 307 292 287 286 310 305 307 324 340 357 360 356 348 349 20 27 3 23 31 16 32 55 22 16 23 80 168 186 189 198 204 201 205 209 218 231 205 165 140 108 72 25 14
205 200 200 204 209 211 212 214 211 211 211 202 198 207 213 210 211 217 225 229 226 221 224 230 232 233 236 240 242 240 242 240 234 234 240 246 255 270 287 283 289 297 287 281 289 276 255 271 293 323 1 20 360 332 328 336 348 4 357 7 30 50 67 51 34 46 62 95 151 179 178 180 189 191 204 213 213 209 197 189 192 151 95 45 23
217 207 201 203 209 212 214 219 218 214 215 209 201 205 214 216 215 216 219 226 230 228 229 232 232 233 236 241 244 242 240 240 237 235 229 225 235 251 268 270 275 286 282 287 302 288 275 283 295 331 25 32 15 352 355 352 349 359 354 344 4 54 65 43 52 57 57 76 111 178 182 177 182 194 207 207 209 226 221 178 104 78 76 54 30
219 215 209 208 212 214 215 219 222 219 217 214 210 210 216 222 221 218 218 223 228 228 230 233 234 234 237 241 244 244 243 240 234 226 223 229 244 258 270 280 286 285 277 295 318 312 321 324 325 11 36 42 39 25 12 358 3 17 6 353 6 38 45 59 113 150 163 144 131 143 152 155 154 160 169 156 113 83 86 88 76 62 56 45 38
220 218 215 213 213 215 217 218 222 223 219 217 219 218 219 224 224 221 222 225 226 226 227 229 230 230 235 240 246 253 253 246 237 234 237 240 249 263 269 280 294 290 274 274 294 297 311 330 339 359 27 58 46 17 8 8 16 21 9 0 11 35 31 15 205 180 169 183 193 170 148 143 139 129 125 117 103 97 91 81 71 60 49 46 50
218 220 220 217 213 215 218 218 219 224 222 218 220 221 220 222 223 223 224 224 222 222 224 226 226 229 234 238 240 236 234 236 236 242 249 244 235 249 260 269 289 285 270 261 265 269 275 296 327 345 20 69 41 7 10 22 22 18 12 2 357 5 14 352 238 206 180 159 172 177 159 123 117 109 102 102 98 94 87 75 68 60 50 46 53
213 217 222 221 217 218 223 221 217 221 225 222 219 218 219 220 221 225 227 224 218 216 223 228 228 232 234 233 231 221 223 232 228 223 239 246 243 251 258 260 268 270 264 254 254 256 249 247 358 7 28 58 35 5 17 25 13 10 15 4 360 358 347 4 148 218 213 152 143 149 138 110 106 102 99 100 99 98 93 79 61 45 38 38 49
216 216 221 226 223 220 223 225 224 224 225 225 220 216 218 219 221 226 229 224 216 216 226 229 224 227 231 226 231 234 238 245 231 206 223 242 247 255 261 261 260 261 257 245 241 257 254 248 353 359 16 41 36 16 24 19 1 358 354 352 5 21 37 91 94 83 125 153 131 110 105 109 107 104 101 98 105 116 104 79 51 32 32 38 47
220 215 216 226 228 222 222 225 228 230 229 233 231 219 215 216 217 220 226 229 225 217 220 226 223 228 227 218 229 240 240 240 230 214 221 235 238 243 249 253 257 260 259 254 249 248 249 269 315 42 59 67 66 47 33 19 4 355 359 24 54 72 81 92 100 103 116 131 123 107 102 108 112 106 94 82 94 112 91 65 53 41 35 38 38
222 214 215 225 231 232 228 222 226 233 235 245 247 226 211 211 214 217 223 229 230 226 228 235 231 229 229 222 227 234 228 222 222 219 218 223 228 232 235 243 258 263 259 264 257 219 193 114 107 103 97 97 95 73 46 33 19 18 55 75 84 95 99 96 98 108 119 124 120 108 99 100 103 92 81 71 72 81 72 62 61 54 44 42 33
228 221 218 222 227 234 236 230 230 233 231 235 241 225 212 213 217 221 223 224 227 231 235 237 233 233 236 228 221 225 224 217 214 213 214 218 222 220 216 216 216 203 176 133 108 112 116 120 125 117 110 133 134 133 115 87 68 70 98 105 105 108 108 101 95 102 118 128 127 113 97 91 90 84 80 76 74 76 74 73 76 76 73 71 66
235 229 223 222 225 230 236 239 237 234 230 229 231 225 218 218 220 221 221 221 227 235 237 235 232 234 236 226 218 223 223 213 209 214 217 219 222 218 209 205 194 178 169 149 126 131 138 134 124 112 105 111 116 128 133 119 102 92 103 115 121 117 108 99 90 88 94 110 126 119 105 99 96 91 86 77 73 75 74 71 71 72 72 68 61
238 235 226 223 226 228 232 238 239 239 239 233 228 226 223 222 221 220 219 221 228 235 239 238 236 236 233 223 212 211 213 209 213 220 218 216 223 217 199 191 182 169 162 147 132 152 154 122 102 102 103 103 104 113 128 125 114 112 116 117 119 119 111 103 93 83 80 85 96 108 108 106 102 101 99 81 68 71 67 63 61 61 64 66 63
230 235 230 224 224 227 230 232 233 238 242 239 232 229 227 226 223 219 219 223 229 235 238 241 242 237 229 220 211 209 222 223 219 217 213 210 217 206 183 174 168 155 144 129 116 112 108 99 94 93 88 83 84 93 113 121 119 132 139 129 126 128 121 111 100 87 84 88 93 103 107 104 105 110 108 95 76 64 48 47 53 51 58 68 67
221 226 234 233 227 226 229 232 232 233 238 241 239 233 231 229 223 219 220 224 230 236 238 240 241 235 228 228 222 215 221 219 204 200 204 207 206 188 171 167 164 152 141 132 120 108 99 92 87 82 76 72 75 85 104 115 113 118 126 126 131 135 128 121 115 103 86 81 90 100 107 107 110 116 114 116 115 92 35 34 43 35 35 50 51
218 219 227 237 234 227 226 230 232 233 236 240 239 234 230 226 220 216 218 223 230 237 237 233 230 228 228 231 224 209 203 197 188 191 199 204 206 194 176 166 162 157 150 139 125 112 103 97 91 86 80 75 75 83 96 103 100 99 105 115 131 139 132 127 123 112 89 73 86 97 110 118 112 104 120 145 141 130 85 39 44 28 20 16 359